Flag for Germany Weather past 2 weeks in Naumburg (Saale), Saxony-Anhalt, Germany

Now
43 °F

Overcast.


Feels Like: 38 °F
Forecast: 39 / 51 °F
Wind: 9 mph from West

Location: Gera-Leumnitz

Current Time: Mar 30, 2015 at 6:42:53 AM

Latest Report: Mar 30, 2015 at 6:00 AM


Visibility: 47 mi

Pressure: 29.35 "Hg

Humidity: 67%

Dew point: 33 °F

Location of Naumburg (Saale)Location

Historic Weather in Naumburg (Saale) — Graph

°F

Naumburg (Saale) temperature yesterday

Maximum temperature yesterday: 50 °F (at 12:00 PM)
Minimum temperature yesterday: 44 °F (at 4:00 AM)
Average temperature yesterday: 48 °F

Past Weeks' High & Low Weather Summary

 TemperatureHumidityPressure
High64 °F (Mar 25, 3:00 PM)97% (Mar 15, 7:00 AM)30.38 "Hg (Mar 15, 7:00 AM)
Low25 °F (Mar 23, 5:00 AM)29% (Mar 20, 4:00 PM)29.23 "Hg (Mar 29, 11:00 PM)
Average42 °F74%30.06 "Hg
* Reported Mar 15 4:00 AM — Mar 30 5:00 AM, Naumburg (Saale), Weather by CustomWeather, © 2015

Note: Actual official high and low records may vary slightly from our data, if they occured in-between our weather recording intervals... More about our weather records

Advertising

Naumburg (Saale) weather history for previous 24 hours

 ConditionsComfort  
Time TempWeatherWind HumidityBarometerVisibility
5:00 AM
Mon, Mar 30
43 °FOvercast.9 mph71%29.35 "Hg31 mi
4:00 AM44 °FOvercast.12 mph65%29.35 "Hg43 mi
3:00 AM45 °FOvercast.12 mph69%29.32 "Hg43 mi
2:00 AM45 °FOvercast.12 mph75%29.29 "Hg43 mi
1:00 AM45 °FOvercast.12 mph75%29.26 "Hg43 mi
12:00 AM46 °FRain. Low clouds.13 mph93%29.26 "Hg1 mi
11:00 PM
Sun, Mar 29
49 °FOvercast.10 mph84%29.23 "Hg43 mi
10:00 PM49 °FDrizzle. Overcast.10 mph85%29.26 "Hg43 mi
9:00 PM48 °FLight rain. Overcast.10 mph86%29.32 "Hg11 mi
8:00 PM49 °FLight rain. Overcast.10 mph83%29.38 "Hg10 mi
7:00 PM49 °FLight rain. Overcast.10 mph76%29.41 "Hg47 mi
6:00 PM49 °FLight rain. Overcast.8 mph80%29.44 "Hg34 mi
5:00 PM50 °FLight rain. Overcast.9 mph78%29.50 "Hg31 mi
4:00 PM50 °FLight rain. Overcast.8 mph81%29.54 "Hg25 mi
3:00 PM49 °FLight rain. Overcast.6 mph87%29.57 "Hg14 mi
2:00 PM50 °FLight rain. Low clouds.8 mph83%29.60 "Hg15 mi
1:00 PM50 °FLight rain. Overcast.6 mph88%29.62 "Hg12 mi
12:00 PM50 °FLight rain. Overcast.9 mph82%29.65 "Hg11 mi
11:00 AM49 °FDrizzle. Low clouds.7 mph86%29.68 "Hg12 mi
10:00 AM50 °FOvercast.7 mph85%29.68 "Hg31 mi
9:00 AM49 °FDrizzle. Low clouds.8 mph83%29.70 "Hg22 mi
8:00 AM47 °FOvercast.7 mph88%29.71 "Hg25 mi
7:00 AM48 °FOvercast.8 mph84%29.74 "Hg25 mi
6:00 AM46 °FOvercast.8 mph90%29.75 "Hg11 mi
Weather by CustomWeather, © 2015

See weather overviewHow to use our weather pages